• In Uzbekistan
  • List of Countries
  • For 7 days
  • Water Temperature
  • Weather Map
  • Weather Widgets
  • user-avatar
    Login

    Hourly Weather Kecskemet

    Today, 27 January, Monday

    Time Temperature Precipitation Wind Pressure Humidity
    00:00 +1°C° 0 mm 2 mps 754 mmHg 80%
    01:00 +1°C° 0 mm 2 mps 754 mmHg 81%
    02:00 +2°C° 0 mm 1 mps 754 mmHg 80%
    03:00 +2°C° 0 mm 1 mps 753 mmHg 79%
    04:00 +2°C° 0 mm 1 mps 753 mmHg 79%
    05:00 +2°C° 0.1 mm 1 mps 753 mmHg 80%
    06:00 +2°C° 0.1 mm 1 mps 753 mmHg 80%
    07:00 +2°C° 0.1 mm 1 mps 753 mmHg 81%
    08:00 +3°C° 0.1 mm 1 mps 753 mmHg 81%
    09:00 +3°C° 0.1 mm 1 mps 753 mmHg 80%
    10:00 +3°C° 0.1 mm 1 mps 753 mmHg 79%
    11:00 +4°C° 0 mm 1 mps 753 mmHg 77%
    12:00 +5°C° 0 mm 1 mps 753 mmHg 74%
    13:00 +6°C° 0 mm 1 mps 753 mmHg 72%
    14:00 +5°C° 0 mm 1 mps 752 mmHg 73%
    15:00 +5°C° 0 mm 1 mps 752 mmHg 75%
    16:00 +5°C° 0 mm 1 mps 752 mmHg 76%
    17:00 +5°C° 0 mm 1 mps 752 mmHg 79%
    18:00 +4°C° 0 mm 1 mps 752 mmHg 82%
    19:00 +3°C° 0 mm 1 mps 752 mmHg 85%
    20:00 +3°C° 0 mm 1 mps 752 mmHg 86%
    21:00 +2°C° 0 mm 1 mps 752 mmHg 87%
    22:00 +2°C° 0 mm 1 mps 751 mmHg 88%
    23:00 +2°C° 0 mm 1 mps 751 mmHg 89%

    Tomorrow, 28 January, Tuesday

    Time Temperature Precipitation Wind Pressure Humidity
    00:00 +1°C° 0 mm 2 mps 750 mmHg 89%
    01:00 +1°C° 0 mm 2 mps 750 mmHg 90%
    02:00 +1°C° 0 mm 2 mps 749 mmHg 91%
    03:00 0°C° 0 mm 3 mps 749 mmHg 92%
    04:00 0°C° 0 mm 3 mps 748 mmHg 93%
    05:00 -1°C° 0 mm 4 mps 748 mmHg 93%
    06:00 -1°C° 0 mm 4 mps 748 mmHg 94%
    07:00 0°C° 0 mm 5 mps 747 mmHg 94%
    08:00 -1°C° 0.5 mm 6 mps 747 mmHg 93%
    09:00 +1°C° 0.5 mm 6 mps 746 mmHg 93%
    10:00 +2°C° 0.5 mm 7 mps 746 mmHg 92%
    11:00 +3°C° 0.4 mm 7 mps 745 mmHg 91%
    12:00 +4°C° 0.4 mm 7 mps 744 mmHg 89%
    13:00 +4°C° 0.4 mm 7 mps 743 mmHg 88%
    14:00 +5°C° 0.1 mm 7 mps 743 mmHg 85%
    15:00 +5°C° 0.1 mm 7 mps 742 mmHg 82%
    16:00 +6°C° 0.1 mm 7 mps 741 mmHg 79%
    17:00 +6°C° 0.6 mm 7 mps 741 mmHg 80%
    18:00 +6°C° 0.6 mm 7 mps 741 mmHg 82%
    19:00 +6°C° 0.6 mm 7 mps 741 mmHg 84%
    20:00 +5°C° 0.9 mm 6 mps 741 mmHg 82%
    21:00 +4°C° 0.9 mm 6 mps 741 mmHg 80%
    22:00 +3°C° 0.9 mm 5 mps 741 mmHg 78%
    23:00 +3°C° 0 mm 6 mps 742 mmHg 74%

    Day after tomorrow, 29 January, Wednesday

    Time Temperature Precipitation Wind Pressure Humidity
    00:00 +2°C° 0 mm 7 mps 742 mmHg 71%
    01:00 +2°C° 0 mm 7 mps 743 mmHg 67%
    02:00 +2°C° 0 mm 7 mps 743 mmHg 68%
    03:00 +1°C° 0 mm 6 mps 744 mmHg 69%
    04:00 +1°C° 0 mm 6 mps 745 mmHg 70%
    05:00 0°C° 0 mm 5 mps 745 mmHg 74%
    06:00 -1°C° 0 mm 5 mps 745 mmHg 78%
    07:00 -1°C° 0 mm 4 mps 745 mmHg 81%
    08:00 0°C° 0 mm 4 mps 745 mmHg 80%
    09:00 +1°C° 0 mm 5 mps 745 mmHg 79%
    10:00 +1°C° 0 mm 5 mps 745 mmHg 79%
    11:00 +2°C° 0 mm 5 mps 745 mmHg 71%
    12:00 +3°C° 0 mm 5 mps 745 mmHg 64%
    13:00 +5°C° 0 mm 5 mps 745 mmHg 56%
    14:00 +5°C° 0 mm 5 mps 745 mmHg 58%
    15:00 +5°C° 0 mm 4 mps 745 mmHg 59%
    16:00 +4°C° 0 mm 3 mps 745 mmHg 60%
    17:00 +3°C° 0 mm 3 mps 746 mmHg 62%
    18:00 +3°C° 0 mm 4 mps 746 mmHg 63%
    19:00 +1°C° 0 mm 4 mps 746 mmHg 65%
    20:00 0°C° 0 mm 4 mps 747 mmHg 65%
    21:00 0°C° 0 mm 5 mps 748 mmHg 64%
    22:00 0°C° 0 mm 5 mps 748 mmHg 64%
    23:00 0°C° 0 mm 5 mps 748 mmHg 67%

    30 January, Thursday

    Time Temperature Precipitation Wind Pressure Humidity
    00:00 -1°C° 0 mm 5 mps 749 mmHg 70%
    01:00 -1°C° 0 mm 5 mps 749 mmHg 73%
    02:00 -2°C° 0 mm 6 mps 749 mmHg 72%
    03:00 -2°C° 0 mm 6 mps 750 mmHg 72%
    04:00 -2°C° 0 mm 6 mps 750 mmHg 71%
    05:00 -2°C° 0 mm 6 mps 751 mmHg 71%
    06:00 -2°C° 0 mm 6 mps 751 mmHg 71%
    07:00 -3°C° 0 mm 6 mps 752 mmHg 71%
    08:00 -1°C° 0 mm 7 mps 752 mmHg 66%
    09:00 0°C° 0 mm 8 mps 753 mmHg 62%
    10:00 +1°C° 0 mm 8 mps 753 mmHg 57%
    11:00 +1°C° 0 mm 8 mps 753 mmHg 55%
    12:00 +2°C° 0 mm 8 mps 753 mmHg 53%
    13:00 +2°C° 0 mm 8 mps 753 mmHg 51%
    14:00 +3°C° 0 mm 7 mps 753 mmHg 53%
    15:00 +2°C° 0 mm 6 mps 753 mmHg 55%
    16:00 +3°C° 0 mm 4 mps 753 mmHg 58%
    17:00 +1°C° 0 mm 4 mps 753 mmHg 60%
    18:00 +2°C° 0 mm 3 mps 753 mmHg 63%
    19:00 +1°C° 0 mm 3 mps 753 mmHg 65%
    20:00 +1°C° 0 mm 3 mps 753 mmHg 68%
    21:00 0°C° 0 mm 3 mps 752 mmHg 71%
    22:00 0°C° 0 mm 3 mps 752 mmHg 75%
    23:00 0°C° 0 mm 3 mps 752 mmHg 75%

    31 January, Friday

    Time Temperature Precipitation Wind Pressure Humidity
    00:00 0°C° 0 mm 3 mps 752 mmHg 76%
    01:00 -1°C° 0 mm 3 mps 751 mmHg 76%
    02:00 -1°C° 0 mm 3 mps 751 mmHg 76%
    03:00 -1°C° 0 mm 3 mps 751 mmHg 76%
    04:00 -1°C° 0 mm 3 mps 751 mmHg 76%
    05:00 -2°C° 0 mm 4 mps 751 mmHg 74%
    06:00 -2°C° 0 mm 4 mps 750 mmHg 72%
    07:00 -2°C° 0 mm 4 mps 750 mmHg 70%
    08:00 0°C° 0 mm 5 mps 750 mmHg 64%
    09:00 +1°C° 0 mm 5 mps 751 mmHg 58%
    10:00 +3°C° 0 mm 6 mps 751 mmHg 51%
    11:00 +4°C° 0 mm 6 mps 750 mmHg 53%
    12:00 +5°C° 0 mm 5 mps 750 mmHg 55%
    13:00 +6°C° 0 mm 5 mps 750 mmHg 57%
    14:00 +6°C° 0.2 mm 5 mps 750 mmHg 65%
    15:00 +5°C° 0.2 mm 4 mps 750 mmHg 72%
    16:00 +5°C° 0.2 mm 4 mps 749 mmHg 79%
    17:00 +5°C° 0.5 mm 4 mps 750 mmHg 79%
    18:00 +5°C° 0.5 mm 5 mps 750 mmHg 78%
    19:00 +5°C° 0.5 mm 5 mps 750 mmHg 78%
    20:00 +4°C° 0.1 mm 6 mps 750 mmHg 77%
    21:00 +5°C° 0.1 mm 6 mps 750 mmHg 76%
    22:00 +5°C° 0.1 mm 7 mps 750 mmHg 75%
    23:00 +5°C° 0 mm 7 mps 751 mmHg 77%

    1 February, Saturday

    Time Temperature Precipitation Wind Pressure Humidity
    00:00 +5°C° 0 mm 6 mps 751 mmHg 78%
    01:00 +4°C° 0 mm 6 mps 751 mmHg 80%
    02:00 +4°C° 0 mm 6 mps 751 mmHg 81%
    03:00 +3°C° 0 mm 5 mps 751 mmHg 83%
    04:00 +3°C° 0 mm 5 mps 751 mmHg 84%
    05:00 +3°C° 0 mm 4 mps 752 mmHg 85%
    06:00 +3°C° 0 mm 4 mps 752 mmHg 86%
    07:00 +3°C° 0 mm 3 mps 752 mmHg 88%
    08:00 +4°C° 0 mm 4 mps 753 mmHg 84%
    09:00 +5°C° 0 mm 4 mps 753 mmHg 81%
    10:00 +6°C° 0 mm 4 mps 753 mmHg 77%
    11:00 +7°C° 0 mm 4 mps 753 mmHg 74%
    12:00 +8°C° 0 mm 4 mps 753 mmHg 71%
    13:00 +8°C° 0 mm 4 mps 752 mmHg 68%
    14:00 +8°C° 0 mm 4 mps 752 mmHg 69%
    15:00 +9°C° 0 mm 3 mps 752 mmHg 71%
    16:00 +8°C° 0 mm 3 mps 752 mmHg 72%
    17:00 +8°C° 0 mm 3 mps 752 mmHg 76%
    18:00 +7°C° 0 mm 3 mps 751 mmHg 80%
    19:00 +5°C° 0 mm 3 mps 751 mmHg 84%
    20:00 +5°C° 0 mm 3 mps 751 mmHg 85%
    21:00 +5°C° 0 mm 3 mps 751 mmHg 87%
    22:00 +4°C° 0 mm 3 mps 751 mmHg 88%
    23:00 +5°C° 0 mm 3 mps 751 mmHg 88%
    Show more